This is the latest recevied weather packets stored in our database for station/object DH5WR-10. If no packets are shown the sender has not sent any weather packets the latest 10 day(s).
| Time | Temp. | Humidity | Pressure | Rain* | Wind** | Luminosity | Snow |
|---|---|---|---|---|---|---|---|
| 1777418544 | 12.78° C | 42% | 1019.2 hPa | - | - | - | - |
| 1777417644 | 12.78° C | 41% | 1019.3 hPa | - | - | - | - |
| 1777416744 | 12.78° C | 41% | 1019.2 hPa | - | - | - | - |
| 1777415844 | 12.78° C | 41% | 1019.2 hPa | - | - | - | - |
| 1777414944 | 13.33° C | 40% | 1019.2 hPa | - | - | - | - |
| 1777414044 | 13.33° C | 40% | 1019.2 hPa | - | - | - | - |
| 1777413144 | 13.33° C | 39% | 1019.2 hPa | - | - | - | - |
| 1777412243 | 13.89° C | 39% | 1019.1 hPa | - | - | - | - |
| 1777411343 | 13.89° C | 38% | 1019.1 hPa | - | - | - | - |
| 1777410443 | 13.89° C | 38% | 1019 hPa | - | - | - | - |
| 1777409543 | 14.44° C | 37% | 1018.8 hPa | - | - | - | - |
| 1777408643 | 14.44° C | 36% | 1018.8 hPa | - | - | - | - |
| 1777407743 | 14.44° C | 36% | 1018.8 hPa | - | - | - | - |
| 1777406842 | 15° C | 36% | 1018.8 hPa | - | - | - | - |
| 1777405942 | 15° C | 35% | 1018.8 hPa | - | - | - | - |
| 1777405042 | 15° C | 35% | 1018.7 hPa | - | - | - | - |
| 1777404142 | 15.56° C | 35% | 1018.6 hPa | - | - | - | - |
| 1777403242 | 15.56° C | 36% | 1018.4 hPa | - | - | - | - |
| 1777402342 | 15.56° C | 35% | 1018.3 hPa | - | - | - | - |
| 1777401442 | 16.11° C | 36% | 1018.3 hPa | - | - | - | - |
| 1777400541 | 16.11° C | 35% | 1018.1 hPa | - | - | - | - |
| 1777399641 | 16.67° C | 35% | 1018 hPa | - | - | - | - |
| 1777398741 | 16.67° C | 34% | 1017.8 hPa | - | - | - | - |
| 1777397841 | 17.22° C | 33% | 1017.6 hPa | - | - | - | - |
| 1777396941 | 17.22° C | 32% | 1017.6 hPa | - | - | - | - |
* Rain since midnight (hover to see other rain measurements)
** Current wind speed in m/s (hover to see current wind gust speed)